Plymouth, MA

7:02 AM EDT on May 27, 2017 (GMT -0400)
Plymouth Municipal

Weather History for KPYM - December, 2012

Change the Weather History Date:

Monday, December 10, 2012

  Actual Average Record
Temperature  
Mean Temperature 52 °F -  
Max Temperature 62 °F 45 °F 66 °F (1966)
Min Temperature 42 °F 25 °F 3 °F (2000)
Degree Days  
Heating Degree Days 13    
Growing Degree Days 2 (Base 50)    
Moisture  
Dew Point 55 °F    
Average Humidity 92    
Maximum Humidity 94    
Minimum Humidity 87    
Precipitation  
Precipitation 1.63 in - - ()
Sea Level Pressure  
Sea Level Pressure 29.73 in    
Wind  
Wind Speed 10 mph (SSW)    
Max Wind Speed 18 mph    
Max Gust Speed 26 mph    
Visibility 5 miles    
Events Rain    
Averages and records for this station are not official NWS values.
T = Trace of Precipitation, MM = Missing Value Source: NWS Daily Summary

Daily Weather History Graph

Daily Weather History Graph

Search for Another Location

Airport or City:

Trip Planner

Search our weather history database for the weather conditions in past years. The results will help you decide how hot, cold, wet, or windy it might be!

Date:

Astronomy

Dec. 10, 2012 Rise Set
Actual Time 7:00 AM EST 4:11 PM EST
Civil Twilight 6:28 AM EST 4:43 PM EST
Nautical Twilight 5:53 AM EST 5:18 PM EST
Astronomical Twilight 5:19 AM EST 5:52 PM EST
Moon 3:37 AM EST (12/10) 2:00 PM EST (12/10)
Length of Visible Light 10h 14m
Length of Day
9h 11m
Waning Crescent, 10% of the Moon is Illuminated
Dec 10
Waning Crescent
Dec 13
New
Dec 20
First Quarter
Dec 28
Full
Jan 4
Last Quarter

Hourly Weather History & Observations

Time (EST) Temp. Windchill Dew Point Humidity Pressure Visibility Wind Dir Wind Speed Gust Speed Precip Events Conditions
12:07 AM 42.8 °F 38.0 °F 39.2 °F 87% 30.14 in 4.0 mi East 8.1 mph - 0.01 in Rain Light Rain
12:52 AM 45.0 °F 40.1 °F 42.1 °F 90% 30.10 in 9.0 mi East 9.2 mph 17.3 mph 0.03 in Rain Light Rain
1:49 AM 44.6 °F 39.2 °F 42.8 °F 93% 30.06 in 4.0 mi East 10.4 mph - 0.07 in Rain Rain
1:50 AM 45.0 °F 39.7 °F 42.1 °F 90% 30.06 in 4.0 mi East 10.4 mph - 0.07 in Rain Rain
2:04 AM 44.6 °F 39.2 °F 42.8 °F 93% 30.05 in 5.0 mi East 10.4 mph - 0.02 in Rain Light Rain
2:19 AM 44.6 °F 40.7 °F 42.8 °F 93% 30.04 in 3.0 mi ENE 6.9 mph - 0.07 in Rain Rain
2:52 AM 45.0 °F 39.7 °F 43.0 °F 93% 30.04 in 5.0 mi East 10.4 mph - 0.18 in Rain Rain
3:52 AM 46.0 °F 41.0 °F 43.0 °F 89% 29.97 in 5.0 mi East 10.4 mph - 0.06 in Rain Light Rain
4:39 AM 46.4 °F 44.3 °F 44.6 °F 93% 29.93 in 8.0 mi East 4.6 mph - 0.00 in   Overcast
4:52 AM 46.9 °F - 45.0 °F 93% 29.92 in 6.0 mi East 3.5 mph - 0.00 in   Overcast
5:52 AM 52.0 °F - 50.0 °F 93% 29.88 in 2.0 mi Variable 5.8 mph - 0.01 in   Overcast
6:06 AM 53.6 °F - 51.8 °F 94% 29.87 in 5.0 mi SSW 8.1 mph - 0.00 in Rain Light Rain
6:30 AM 55.4 °F - 53.6 °F 94% 29.85 in 8.0 mi South 8.1 mph 16.1 mph 0.01 in Rain Light Rain
6:52 AM 57.0 °F - 54.0 °F 89% 29.85 in 9.0 mi SSW 11.5 mph 18.4 mph 0.02 in Rain Light Rain
7:39 AM 57.2 °F - 55.4 °F 94% 29.83 in 2.0 mi South 6.9 mph - 0.05 in Rain Light Rain
7:48 AM 57.2 °F - 55.4 °F 94% 29.83 in 6.0 mi SSW 10.4 mph 17.3 mph 0.05 in Rain Light Rain
7:52 AM 57.9 °F - 55.0 °F 90% 29.83 in 5.0 mi SSW 12.7 mph 21.9 mph 0.05 in Rain Light Rain
8:11 AM 59.0 °F - 55.4 °F 88% 29.82 in 6.0 mi SW 13.8 mph 20.7 mph 0.03 in Rain Light Rain
8:52 AM 59.0 °F - 57.0 °F 93% 29.81 in 10.0 mi SSW 12.7 mph 19.6 mph 0.03 in   Overcast
9:52 AM 60.1 °F - 57.0 °F 90% 29.81 in 10.0 mi SW 12.7 mph 21.9 mph N/A   Overcast
10:52 AM 60.1 °F - 57.9 °F 93% 29.78 in 1.8 mi SW 11.5 mph 19.6 mph 0.00 in   Overcast
11:03 AM 60.8 °F - 57.2 °F 88% 29.77 in 2.5 mi SSW 16.1 mph - N/A   Overcast
11:10 AM 60.8 °F - 57.2 °F 88% 29.76 in 5.0 mi SW 13.8 mph 19.6 mph 0.00 in Rain Light Rain
11:52 AM 61.0 °F - 57.9 °F 90% 29.74 in 8.0 mi SSW 12.7 mph 21.9 mph 0.01 in Rain Light Rain
12:19 PM 60.8 °F - 57.2 °F 88% 29.71 in 1.8 mi SW 11.5 mph 21.9 mph 0.09 in Rain Heavy Rain
12:48 PM 60.8 °F - 59.0 °F 94% 29.71 in 0.8 mi SW 13.8 mph 20.7 mph 0.37 in Rain Heavy Rain
12:52 PM 61.0 °F - 59.0 °F 93% 29.70 in 0.8 mi SW 12.7 mph - 0.44 in Rain Heavy Rain
12:57 PM 60.8 °F - 59.0 °F 94% 29.69 in 1.0 mi SSW 8.1 mph 19.6 mph 0.03 in Rain Heavy Rain
1:03 PM 60.8 °F - 59.0 °F 94% 29.69 in 3.0 mi SSW 9.2 mph - 0.04 in Rain Light Rain
1:12 PM 60.8 °F - 59.0 °F 94% 29.69 in 2.5 mi SSW 8.1 mph - 0.07 in Rain Light Rain
1:18 PM 60.8 °F - 59.0 °F 94% 29.70 in 5.0 mi SW 11.5 mph - 0.09 in Rain Rain
1:20 PM 60.8 °F - 59.0 °F 94% 29.69 in 2.5 mi SW 12.7 mph - 0.14 in Rain Rain
1:23 PM 60.8 °F - 59.0 °F 94% 29.69 in 1.5 mi SW 10.4 mph - 0.17 in Rain Heavy Rain
1:26 PM 60.8 °F - 59.0 °F 94% 29.69 in 1.5 mi SSW 11.5 mph - 0.17 in Rain Rain
1:30 PM 60.8 °F - 59.0 °F 94% 29.68 in 2.0 mi SSW 9.2 mph - 0.18 in Rain Light Rain
1:33 PM 60.8 °F - 59.0 °F 94% 29.67 in 5.0 mi SSW 9.2 mph - 0.18 in Rain Light Rain
1:52 PM 61.0 °F - 57.9 °F 90% 29.68 in 10.0 mi SSW 10.4 mph - 0.19 in   Mostly Cloudy
2:35 PM 60.8 °F - 57.2 °F 88% 29.65 in 1.8 mi SSW 8.1 mph 20.7 mph 0.11 in Rain Heavy Rain
2:42 PM 60.8 °F - 59.0 °F 94% 29.65 in 1.8 mi SSW 9.2 mph - 0.13 in Rain Light Rain
2:45 PM 60.8 °F - 59.0 °F 94% 29.65 in 3.0 mi SSW 8.1 mph - 0.13 in Rain Light Rain
2:52 PM 61.0 °F - 59.0 °F 93% 29.65 in 5.0 mi SSW 11.5 mph 18.4 mph 0.14 in Rain Light Rain
3:11 PM 62.6 °F - 59.0 °F 88% 29.64 in 1.8 mi SW 18.4 mph 24.2 mph 0.01 in Rain Light Rain
3:52 PM 61.0 °F - 59.0 °F 93% 29.63 in 6.0 mi SSW 16.1 mph 26.5 mph 0.03 in   Overcast
4:52 PM 62.1 °F - 59.0 °F 90% 29.60 in 4.0 mi SSW 16.1 mph 24.2 mph 0.01 in   Overcast
5:23 PM 60.8 °F - 59.0 °F 94% 29.59 in 2.0 mi SW 12.7 mph 18.4 mph 0.08 in Rain Rain
5:32 PM 60.8 °F - 59.0 °F 94% 29.59 in 7.0 mi SSW 9.2 mph 18.4 mph 0.09 in Rain Light Rain
5:52 PM 60.1 °F - 57.9 °F 93% 29.57 in 4.0 mi SSW 12.7 mph 19.6 mph 0.12 in Rain Light Rain
6:30 PM 60.8 °F - 57.2 °F 88% 29.55 in 2.0 mi SSW 6.9 mph 18.4 mph 0.06 in Rain Rain
6:52 PM 60.1 °F - 57.9 °F 93% 29.54 in 2.5 mi SSW 10.4 mph 18.4 mph 0.17 in Rain Rain
7:01 PM 60.8 °F - 57.2 °F 88% 29.54 in 4.0 mi SSW 9.2 mph 18.4 mph 0.02 in Rain Light Rain
7:15 PM 60.8 °F - 59.0 °F 94% 29.54 in 2.5 mi SW 9.2 mph - 0.06 in Rain Light Rain
7:25 PM 60.8 °F - 59.0 °F 94% 29.52 in 5.0 mi SW 8.1 mph - 0.06 in Rain Light Rain
7:52 PM 61.0 °F - 57.9 °F 90% 29.52 in 8.0 mi WSW 11.5 mph - 0.07 in   Overcast
8:52 PM 60.1 °F - 57.9 °F 93% 29.51 in 10.0 mi SW 6.9 mph - 0.00 in   Overcast
9:29 PM 59.0 °F - 57.2 °F 94% 29.52 in 10.0 mi SW 9.2 mph - N/A   Mostly Cloudy
9:52 PM 59.0 °F - 57.0 °F 93% 29.53 in 10.0 mi SW 8.1 mph - N/A   Overcast
10:00 PM 59.0 °F - 57.2 °F 94% 29.52 in 10.0 mi SW 10.4 mph - N/A   Overcast
10:41 PM 57.2 °F - 55.4 °F 94% 29.53 in 10.0 mi SW 9.2 mph - N/A   Overcast
10:52 PM 57.9 °F - 55.9 °F 93% 29.53 in 10.0 mi SW 9.2 mph - N/A   Overcast
11:52 PM 57.9 °F - 55.0 °F 90% 29.54 in 10.0 mi SW 9.2 mph - N/A   Overcast